Zurück zum Katalog

FENGYUN 1C DEB

LostSSO
NORAD 35095·DEBRIS·🇨🇳 China

Gestartet May 10, 1999 von Taiyuan Satellite Launch Center

Loading…

Nächste Überflüge (nächste 24 Stunden)

TLE

VeraltetSource: Space-Track

Epoche: Dec 5, 2023, 03:20 UTC

1 35095U 99025DJX 23339.13910508  .00022691  00000-0  30947-2 0  9999
2 35095  98.4952 101.2138 0162215 268.4577  89.8042 14.69902385811113

Verfolge FENGYUN 1C DEB in Echtzeit mit AllMySat

Download on the App Store